Location: Boston
(42.3580°N, 71.0600°W)
Time: 10:56:14
(UTC-05:00)

Envisat - Pass Details

Date: 10 October 2017
Orbit: 764 x 766 km, 98.2° (Epoch: 14 December)

Event Time Altitude Azimuth Distance (km) Brightness Sun altitude
Exits shadow 21:07:48 41° 279° (W) 1,098 4.1 -33.1°
Drops below altitude 10° 21:12:07 10° 333° (NNW) 2,313 6.0 -33.8°
Sets 21:14:33 0° 341° (NNW) 3,244 6.8 -34.2°
